When you browse on this site, cookies collect data to enhance your experience and personalize the content and advertising you see.
Visit our Privacy Policy to learn more. By continuing to use the site, you agree to this use of cookies and data.
  • In Schweiz
  • Länderverzeichnis
  • Für 7 Tage
  • Wassertemperatur
  • Satellitenkarten
  • Wetterkarte
  • Widgets
  • user-avatar
    Anmelden

    Stündliche Wetter Sari

    Heute, 9 Dezember, Sonntag

    Zeit Temperatur Niederschläge Wind Luftdruck Luftfeuchtigkeit
    00:00 +13°C° 0 mm 2 m/S 760 mmHg 82%
    01:00 +13°C° 0 mm 2 m/S 760 mmHg 80%
    02:00 +13°C° 0 mm 2 m/S 760 mmHg 78%
    03:00 +13°C° 0 mm 2 m/S 760 mmHg 76%
    04:00 +12°C° 0 mm 3 m/S 759 mmHg 76%
    05:00 +12°C° 0 mm 2 m/S 759 mmHg 75%
    06:00 +12°C° 0 mm 2 m/S 760 mmHg 74%
    07:00 +12°C° 0 mm 2 m/S 760 mmHg 73%
    08:00 +13°C° 0 mm 2 m/S 760 mmHg 66%
    09:00 +15°C° 0 mm 2 m/S 760 mmHg 60%
    10:00 +17°C° 0 mm 2 m/S 760 mmHg 49%
    11:00 +18°C° 0 mm 2 m/S 760 mmHg 48%
    12:00 +18°C° 0 mm 2 m/S 760 mmHg 47%
    13:00 +19°C° 0 mm 3 m/S 759 mmHg 46%
    14:00 +18°C° 0 mm 3 m/S 759 mmHg 50%
    15:00 +18°C° 0 mm 3 m/S 759 mmHg 53%
    16:00 +16°C° 0 mm 3 m/S 759 mmHg 59%
    17:00 +16°C° 0 mm 3 m/S 760 mmHg 61%
    18:00 +15°C° 0 mm 2 m/S 760 mmHg 62%
    19:00 +14°C° 0 mm 2 m/S 760 mmHg 64%
    20:00 +14°C° 0 mm 2 m/S 760 mmHg 64%
    21:00 +14°C° 0 mm 2 m/S 760 mmHg 64%
    22:00 +14°C° 0 mm 2 m/S 760 mmHg 64%
    23:00 +13°C° 0 mm 2 m/S 761 mmHg 64%

    Morgen, 10 Dezember, Montag

    Zeit Temperatur Niederschläge Wind Luftdruck Luftfeuchtigkeit
    00:00 +13°C° 0 mm 2 m/S 761 mmHg 65%
    01:00 +13°C° 0 mm 1 m/S 761 mmHg 65%
    02:00 +13°C° 0 mm 1 m/S 761 mmHg 65%
    03:00 +13°C° 0 mm 1 m/S 761 mmHg 65%
    04:00 +12°C° 0 mm 1 m/S 761 mmHg 65%
    05:00 +12°C° 0 mm 1 m/S 761 mmHg 63%
    06:00 +12°C° 0 mm 1 m/S 761 mmHg 62%
    07:00 +12°C° 0 mm 1 m/S 761 mmHg 60%
    08:00 +13°C° 0 mm 1 m/S 761 mmHg 56%
    09:00 +15°C° 0 mm 1 m/S 761 mmHg 51%
    10:00 +16°C° 0 mm 1 m/S 761 mmHg 47%
    11:00 +18°C° 0 mm 1 m/S 760 mmHg 47%
    12:00 +18°C° 0 mm 2 m/S 760 mmHg 46%
    13:00 +19°C° 0 mm 2 m/S 759 mmHg 46%
    14:00 +18°C° 0 mm 2 m/S 759 mmHg 49%
    15:00 +18°C° 0 mm 2 m/S 759 mmHg 52%
    16:00 +17°C° 0 mm 2 m/S 759 mmHg 55%
    17:00 +16°C° 0 mm 2 m/S 759 mmHg 59%
    18:00 +15°C° 0 mm 2 m/S 759 mmHg 63%
    19:00 +14°C° 0 mm 1 m/S 759 mmHg 68%
    20:00 +14°C° 0 mm 1 m/S 759 mmHg 66%
    21:00 +14°C° 0 mm 1 m/S 759 mmHg 65%
    22:00 +13°C° 0 mm 1 m/S 759 mmHg 63%
    23:00 +13°C° 0 mm 1 m/S 759 mmHg 61%

    übermorgen, 11 Dezember, Dienstag

    Zeit Temperatur Niederschläge Wind Luftdruck Luftfeuchtigkeit
    00:00 +13°C° 0 mm 1 m/S 759 mmHg 60%
    01:00 +13°C° 0 mm 1 m/S 759 mmHg 58%
    02:00 +13°C° 0 mm 1 m/S 759 mmHg 56%
    03:00 +13°C° 0 mm 1 m/S 759 mmHg 53%
    04:00 +13°C° 0 mm 2 m/S 759 mmHg 51%
    05:00 +13°C° 0 mm 2 m/S 759 mmHg 50%
    06:00 +13°C° 0 mm 2 m/S 759 mmHg 48%
    07:00 +13°C° 0 mm 2 m/S 759 mmHg 46%
    08:00 +15°C° 0 mm 1 m/S 759 mmHg 42%
    09:00 +18°C° 0 mm 1 m/S 759 mmHg 38%
    10:00 +20°C° 0 mm 1 m/S 760 mmHg 34%
    11:00 +21°C° 0 mm 1 m/S 759 mmHg 32%
    12:00 +21°C° 0 mm 2 m/S 759 mmHg 30%
    13:00 +23°C° 0 mm 2 m/S 758 mmHg 28%
    14:00 +21°C° 0 mm 2 m/S 758 mmHg 31%
    15:00 +21°C° 0 mm 2 m/S 758 mmHg 34%
    16:00 +20°C° 0 mm 2 m/S 758 mmHg 37%
    17:00 +19°C° 0 mm 2 m/S 758 mmHg 38%
    18:00 +17°C° 0 mm 2 m/S 758 mmHg 40%
    19:00 +16°C° 0 mm 3 m/S 758 mmHg 41%
    20:00 +16°C° 0 mm 2 m/S 758 mmHg 41%
    21:00 +16°C° 0 mm 2 m/S 758 mmHg 40%
    22:00 +16°C° 0 mm 2 m/S 758 mmHg 39%
    23:00 +16°C° 0 mm 2 m/S 758 mmHg 38%

    12 Dezember, Mittwoch

    Zeit Temperatur Niederschläge Wind Luftdruck Luftfeuchtigkeit
    00:00 +16°C° 0 mm 2 m/S 757 mmHg 37%
    01:00 +15°C° 0 mm 2 m/S 757 mmHg 36%
    02:00 +16°C° 0 mm 3 m/S 757 mmHg 34%
    03:00 +16°C° 0 mm 3 m/S 757 mmHg 32%
    04:00 +16°C° 0 mm 3 m/S 757 mmHg 30%
    05:00 +16°C° 0 mm 3 m/S 757 mmHg 28%
    06:00 +16°C° 0 mm 3 m/S 757 mmHg 27%
    07:00 +16°C° 0 mm 3 m/S 757 mmHg 25%
    08:00 +18°C° 0 mm 2 m/S 758 mmHg 24%
    09:00 +20°C° 0 mm 2 m/S 758 mmHg 23%
    10:00 +23°C° 0 mm 1 m/S 758 mmHg 22%
    11:00 +24°C° 0 mm 1 m/S 758 mmHg 21%
    12:00 +25°C° 0 mm 1 m/S 758 mmHg 20%
    13:00 +27°C° 0 mm 1 m/S 757 mmHg 19%
    14:00 +26°C° 0 mm 1 m/S 757 mmHg 22%
    15:00 +25°C° 0 mm 1 m/S 757 mmHg 25%
    16:00 +24°C° 0 mm 1 m/S 757 mmHg 28%
    17:00 +22°C° 0 mm 1 m/S 758 mmHg 29%
    18:00 +21°C° 0 mm 1 m/S 758 mmHg 29%
    19:00 +19°C° 0 mm 1 m/S 758 mmHg 30%
    20:00 +18°C° 0 mm 2 m/S 758 mmHg 30%
    21:00 +18°C° 0 mm 2 m/S 758 mmHg 30%
    22:00 +17°C° 0 mm 2 m/S 758 mmHg 29%
    23:00 +17°C° 0 mm 2 m/S 758 mmHg 29%

    13 Dezember, Donnerstag

    Zeit Temperatur Niederschläge Wind Luftdruck Luftfeuchtigkeit
    00:00 +17°C° 0 mm 2 m/S 758 mmHg 28%
    01:00 +17°C° 0 mm 2 m/S 757 mmHg 27%
    02:00 +17°C° 0 mm 2 m/S 757 mmHg 26%
    03:00 +17°C° 0 mm 3 m/S 757 mmHg 25%
    04:00 +16°C° 0 mm 3 m/S 757 mmHg 24%
    05:00 +16°C° 0 mm 3 m/S 757 mmHg 23%
    06:00 +16°C° 0 mm 3 m/S 757 mmHg 22%
    07:00 +16°C° 0 mm 3 m/S 757 mmHg 22%
    08:00 +18°C° 0 mm 3 m/S 757 mmHg 22%
    09:00 +20°C° 0 mm 2 m/S 757 mmHg 21%
    10:00 +23°C° 0 mm 2 m/S 758 mmHg 21%
    11:00 +24°C° 0 mm 2 m/S 757 mmHg 20%
    12:00 +26°C° 0 mm 2 m/S 757 mmHg 18%
    13:00 +27°C° 0 mm 2 m/S 757 mmHg 17%
    14:00 +26°C° 0 mm 2 m/S 757 mmHg 20%
    15:00 +24°C° 0 mm 2 m/S 757 mmHg 24%
    16:00 +23°C° 0 mm 2 m/S 758 mmHg 27%
    17:00 +20°C° 0 mm 2 m/S 758 mmHg 32%
    18:00 +19°C° 0 mm 1 m/S 759 mmHg 36%
    19:00 +18°C° 0 mm 1 m/S 760 mmHg 41%
    20:00 +16°C° 0 mm 1 m/S 760 mmHg 41%
    21:00 +16°C° 0 mm 1 m/S 760 mmHg 42%
    22:00 +16°C° 0 mm 2 m/S 761 mmHg 42%
    23:00 +15°C° 0 mm 2 m/S 761 mmHg 47%

    14 Dezember, Freitag

    Zeit Temperatur Niederschläge Wind Luftdruck Luftfeuchtigkeit
    00:00 +15°C° 0 mm 2 m/S 761 mmHg 52%
    01:00 +14°C° 0 mm 2 m/S 761 mmHg 57%
    02:00 +14°C° 0 mm 2 m/S 761 mmHg 61%
    03:00 +14°C° 0 mm 2 m/S 761 mmHg 66%
    04:00 +13°C° 0 mm 1 m/S 761 mmHg 70%
    05:00 +13°C° 0 mm 1 m/S 762 mmHg 72%
    06:00 +13°C° 0 mm 1 m/S 762 mmHg 73%
    07:00 +13°C° 0 mm 1 m/S 762 mmHg 75%
    08:00 +14°C° 0 mm 1 m/S 762 mmHg 73%
    09:00 +15°C° 0 mm 1 m/S 762 mmHg 71%
    10:00 +15°C° 0 mm 1 m/S 763 mmHg 69%
    11:00 +16°C° 0 mm 2 m/S 762 mmHg 70%
    12:00 +16°C° 0 mm 2 m/S 762 mmHg 71%
    13:00 +16°C° 0 mm 2 m/S 762 mmHg 71%
    14:00 +16°C° 0.1 mm 2 m/S 762 mmHg 76%
    15:00 +15°C° 0.1 mm 2 m/S 762 mmHg 80%
    16:00 +15°C° 0.1 mm 2 m/S 762 mmHg 84%
    17:00 +14°C° 0.1 mm 2 m/S 763 mmHg 87%
    18:00 +14°C° 0.1 mm 2 m/S 763 mmHg 90%
    19:00 +13°C° 0.1 mm 2 m/S 764 mmHg 92%
    20:00 +13°C° 0 mm 2 m/S 764 mmHg 92%
    21:00 +13°C° 0 mm 2 m/S 764 mmHg 91%
    22:00 +13°C° 0 mm 2 m/S 764 mmHg 90%
    23:00 +13°C° 0 mm 2 m/S 764 mmHg 89%
    Mehr zeigen